When you browse on this site, cookies collect data to enhance your experience and personalize the content and advertising you see.
Visit our Privacy Policy to learn more. By continuing to use the site, you agree to this use of cookies and data.
  • In France
  • List of Countries
  • For 7 days
  • Water Temperature
  • Weather Map
  • Weather Widgets
  • user-avatar
    Login

    Hourly Weather Ischgl

    Today, 2 June, Tuesday

    Time Temperature Precipitation Wind Pressure Humidity
    00:00 +1°C° 0 mm 0 mps 573 mmHg 94%
    01:00 0°C° 0 mm 0 mps 573 mmHg 94%
    02:00 0°C° 0 mm 0 mps 573 mmHg 94%
    03:00 0°C° 0 mm 0 mps 573 mmHg 93%
    04:00 0°C° 0 mm 0 mps 572 mmHg 92%
    05:00 +3°C° 0 mm 1 mps 573 mmHg 87%
    06:00 +5°C° 0 mm 1 mps 574 mmHg 83%
    07:00 +6°C° 0 mm 1 mps 576 mmHg 78%
    08:00 +8°C° 0 mm 1 mps 576 mmHg 69%
    09:00 +8°C° 0 mm 2 mps 577 mmHg 60%
    10:00 +9°C° 0 mm 2 mps 577 mmHg 52%
    11:00 +10°C° 0.1 mm 2 mps 577 mmHg 50%
    12:00 +12°C° 0.1 mm 2 mps 577 mmHg 47%
    13:00 +11°C° 0.1 mm 3 mps 577 mmHg 45%
    14:00 +11°C° 0.5 mm 3 mps 577 mmHg 48%
    15:00 +11°C° 0.5 mm 3 mps 576 mmHg 51%
    16:00 +11°C° 0.5 mm 3 mps 576 mmHg 54%
    17:00 +9°C° 0.6 mm 2 mps 575 mmHg 61%
    18:00 +8°C° 0.6 mm 2 mps 574 mmHg 67%
    19:00 +7°C° 0.6 mm 2 mps 574 mmHg 74%
    20:00 +6°C° 0.2 mm 1 mps 573 mmHg 78%
    21:00 +5°C° 0.2 mm 1 mps 572 mmHg 83%
    22:00 +2°C° 0.2 mm 0 mps 572 mmHg 87%
    23:00 +1°C° 0 mm 0 mps 571 mmHg 87%

    Tomorrow, 3 June, Wednesday

    Time Temperature Precipitation Wind Pressure Humidity
    00:00 +1°C° 0 mm 0 mps 571 mmHg 87%
    01:00 +1°C° 0 mm 0 mps 570 mmHg 87%
    02:00 +1°C° 0 mm 1 mps 570 mmHg 87%
    03:00 +1°C° 0 mm 1 mps 569 mmHg 86%
    04:00 +1°C° 0 mm 1 mps 569 mmHg 85%
    05:00 +3°C° 0 mm 1 mps 570 mmHg 80%
    06:00 +5°C° 0 mm 1 mps 571 mmHg 74%
    07:00 +7°C° 0 mm 1 mps 572 mmHg 69%
    08:00 +8°C° 0 mm 1 mps 572 mmHg 60%
    09:00 +10°C° 0 mm 1 mps 573 mmHg 51%
    10:00 +12°C° 0 mm 1 mps 573 mmHg 43%
    11:00 +12°C° 0 mm 1 mps 573 mmHg 40%
    12:00 +13°C° 0 mm 1 mps 573 mmHg 37%
    13:00 +14°C° 0 mm 1 mps 573 mmHg 35%
    14:00 +13°C° 0.2 mm 1 mps 572 mmHg 37%
    15:00 +13°C° 0.2 mm 2 mps 572 mmHg 40%
    16:00 +13°C° 0.2 mm 2 mps 571 mmHg 42%
    17:00 +10°C° 0.5 mm 2 mps 571 mmHg 53%
    18:00 +10°C° 0.5 mm 1 mps 570 mmHg 65%
    19:00 +9°C° 0.5 mm 1 mps 569 mmHg 76%
    20:00 +8°C° 0.4 mm 1 mps 568 mmHg 81%
    21:00 +6°C° 0.4 mm 1 mps 568 mmHg 86%
    22:00 +5°C° 0.4 mm 1 mps 568 mmHg 91%
    23:00 +5°C° 0.2 mm 1 mps 567 mmHg 92%

    Day after tomorrow, 4 June, Thursday

    Time Temperature Precipitation Wind Pressure Humidity
    00:00 +5°C° 0.2 mm 1 mps 567 mmHg 93%
    01:00 +5°C° 0.2 mm 1 mps 567 mmHg 93%
    02:00 +4°C° 0.3 mm 1 mps 566 mmHg 94%
    03:00 +4°C° 0.3 mm 1 mps 566 mmHg 94%
    04:00 +4°C° 0.3 mm 1 mps 565 mmHg 94%
    05:00 +4°C° 0.8 mm 1 mps 565 mmHg 94%
    06:00 +4°C° 0.8 mm 1 mps 565 mmHg 93%
    07:00 +5°C° 0.8 mm 1 mps 565 mmHg 93%
    08:00 +5°C° 0.5 mm 1 mps 565 mmHg 92%
    09:00 +5°C° 0.5 mm 1 mps 565 mmHg 91%
    10:00 +5°C° 0.5 mm 1 mps 565 mmHg 90%
    11:00 +6°C° 0.3 mm 1 mps 565 mmHg 90%
    12:00 +6°C° 0.3 mm 1 mps 564 mmHg 90%
    13:00 +6°C° 0.3 mm 1 mps 564 mmHg 89%
    14:00 +5°C° 0.7 mm 2 mps 564 mmHg 90%
    15:00 +5°C° 0.7 mm 2 mps 564 mmHg 91%
    16:00 +5°C° 0.7 mm 2 mps 564 mmHg 92%
    17:00 +3°C° 2.8 mm 2 mps 563 mmHg 94%
    18:00 +3°C° 2.8 mm 1 mps 563 mmHg 96%
    19:00 +2°C° 2.8 mm 1 mps 562 mmHg 98%
    20:00 +2°C° 2.4 mm 1 mps 562 mmHg 98%
    21:00 +1°C° 2.4 mm 1 mps 562 mmHg 98%
    22:00 +1°C° 2.4 mm 1 mps 561 mmHg 98%
    23:00 +1°C° 2.7 mm 1 mps 561 mmHg 98%

    5 June, Friday

    Time Temperature Precipitation Wind Pressure Humidity
    00:00 0°C° 2.7 mm 1 mps 561 mmHg 99%
    01:00 0°C° 2.7 mm 1 mps 560 mmHg 99%
    02:00 0°C° 1.8 mm 1 mps 560 mmHg 99%
    03:00 0°C° 1.8 mm 1 mps 560 mmHg 99%
    04:00 -2°C° 1.8 mm 2 mps 560 mmHg 99%
    05:00 -2°C° 1.2 mm 2 mps 560 mmHg 99%
    06:00 -2°C° 1.2 mm 2 mps 561 mmHg 99%
    07:00 -2°C° 1.2 mm 2 mps 561 mmHg 99%
    08:00 -2°C° 1.1 mm 2 mps 561 mmHg 99%
    09:00 -2°C° 1.1 mm 2 mps 561 mmHg 99%
    10:00 -2°C° 1.1 mm 2 mps 562 mmHg 99%
    11:00 -2°C° 0.7 mm 3 mps 562 mmHg 98%
    12:00 -2°C° 0.7 mm 3 mps 562 mmHg 98%
    13:00 -4°C° 0.7 mm 3 mps 562 mmHg 97%
    14:00 -2°C° 0.4 mm 2 mps 562 mmHg 96%
    15:00 -2°C° 0.4 mm 2 mps 563 mmHg 95%
    16:00 -2°C° 0.4 mm 2 mps 563 mmHg 94%
    17:00 -3°C° 0.1 mm 2 mps 563 mmHg 93%
    18:00 -3°C° 0.1 mm 2 mps 563 mmHg 93%
    19:00 -3°C° 0.1 mm 2 mps 564 mmHg 92%
    20:00 -4°C° 0.3 mm 2 mps 564 mmHg 94%
    21:00 -3°C° 0.3 mm 1 mps 564 mmHg 95%
    22:00 -4°C° 0.3 mm 1 mps 564 mmHg 96%
    23:00 -4°C° 0.5 mm 1 mps 564 mmHg 96%

    6 June, Saturday

    Time Temperature Precipitation Wind Pressure Humidity
    00:00 -4°C° 0.5 mm 1 mps 565 mmHg 96%
    01:00 -4°C° 0.5 mm 1 mps 565 mmHg 96%
    02:00 -4°C° 0 mm 1 mps 565 mmHg 96%
    03:00 -6°C° 0 mm 1 mps 565 mmHg 95%
    04:00 -6°C° 0 mm 1 mps 565 mmHg 94%
    05:00 -3°C° 0 mm 1 mps 566 mmHg 92%
    06:00 -2°C° 0 mm 1 mps 567 mmHg 89%
    07:00 0°C° 0 mm 1 mps 568 mmHg 86%
    08:00 +1°C° 0 mm 1 mps 568 mmHg 85%
    09:00 +2°C° 0 mm 1 mps 569 mmHg 85%
    10:00 +3°C° 0 mm 1 mps 570 mmHg 84%
    11:00 +3°C° 0 mm 2 mps 570 mmHg 82%
    12:00 +4°C° 0 mm 2 mps 570 mmHg 80%
    13:00 +5°C° 0 mm 2 mps 571 mmHg 78%
    14:00 +6°C° 0 mm 2 mps 571 mmHg 76%
    15:00 +6°C° 0 mm 2 mps 571 mmHg 75%
    16:00 +7°C° 0 mm 2 mps 571 mmHg 73%
    17:00 +6°C° 0 mm 2 mps 571 mmHg 78%
    18:00 +5°C° 0 mm 2 mps 570 mmHg 83%
    19:00 +4°C° 0 mm 2 mps 570 mmHg 88%
    20:00 +3°C° 0 mm 2 mps 570 mmHg 90%
    21:00 +2°C° 0 mm 2 mps 569 mmHg 91%
    22:00 +1°C° 0 mm 2 mps 569 mmHg 93%
    23:00 +1°C° 0 mm 2 mps 569 mmHg 93%

    7 June, Sunday

    Time Temperature Precipitation Wind Pressure Humidity
    00:00 -1°C° 0 mm 2 mps 569 mmHg 92%
    01:00 -1°C° 0 mm 2 mps 569 mmHg 91%
    02:00 -1°C° 0 mm 2 mps 568 mmHg 92%
    03:00 -1°C° 0 mm 2 mps 568 mmHg 92%
    04:00 -1°C° 0 mm 2 mps 568 mmHg 92%
    05:00 +1°C° 0 mm 2 mps 568 mmHg 91%
    06:00 +2°C° 0 mm 2 mps 569 mmHg 90%
    07:00 +3°C° 0 mm 2 mps 569 mmHg 88%
    08:00 +4°C° 0 mm 2 mps 570 mmHg 85%
    09:00 +5°C° 0 mm 2 mps 571 mmHg 83%
    10:00 +6°C° 0 mm 2 mps 572 mmHg 80%
    11:00 +6°C° 0.3 mm 2 mps 572 mmHg 79%
    12:00 +7°C° 0.3 mm 2 mps 572 mmHg 79%
    13:00 +7°C° 0.3 mm 2 mps 573 mmHg 78%
    14:00 +7°C° 0.7 mm 2 mps 572 mmHg 81%
    15:00 +7°C° 0.7 mm 2 mps 572 mmHg 83%
    16:00 +7°C° 0.7 mm 1 mps 572 mmHg 85%
    17:00 +7°C° 0.6 mm 1 mps 572 mmHg 89%
    18:00 +6°C° 0.6 mm 1 mps 572 mmHg 92%
    19:00 +5°C° 0.6 mm 1 mps 571 mmHg 96%
    20:00 +4°C° 0.7 mm 1 mps 571 mmHg 96%
    21:00 +4°C° 0.7 mm 1 mps 571 mmHg 97%
    22:00 +3°C° 0.7 mm 1 mps 571 mmHg 98%
    23:00 +3°C° 0.4 mm 1 mps 571 mmHg 98%
    Show more